| time (UTC) | temp C | wind direction | speed KPH | gust KPH | rain 1hr cm | rain 24hr cm | rain mn cm | humidity % | barometer mb |
| 20260504081521 | 11 | 188 | 0.0 | 14.5 | 0.00 | 0.00 | 0.00 | 62 | 1016.1 |
| 20260504050020 | 8 | 312 | 0.0 | 0.0 | 0.00 | 0.00 | 0.00 | 63 | 1016.5 |
| 20260504044522 | 8 | 312 | 0.0 | 0.0 | 0.00 | 0.00 | 0.00 | 63 | 1016.5 |
| 20260504043006 | 8 | 312 | 0.0 | 0.0 | 0.00 | 0.00 | 0.00 | 62 | 1016.4 |
| 20260504041511 | 8 | 312 | 0.0 | 0.0 | 0.00 | 0.00 | 0.00 | 62 | 1016.6 |
| 20260504040019 | 8 | 312 | 0.0 | 0.0 | 0.00 | 0.00 | 0.00 | 62 | 1016.5 |
| 20260504034535 | 7 | 312 | 0.0 | 0.0 | 0.00 | 0.00 | 0.00 | 63 | 1016.3 |
| 20260504033030 | 7 | 312 | 0.0 | 0.0 | 0.00 | 0.00 | 0.00 | 66 | 1016.1 |
| 20260504031509 | 6 | 312 | 0.0 | 0.0 | 0.00 | 0.00 | 0.00 | 67 | 1016.1 |
| 20260504030015 | 6 | 312 | 0.0 | 0.0 | 0.00 | 0.00 | 0.00 | 67 | 1015.9 |
| 20260504024523 | 7 | 312 | 0.0 | 0.0 | 0.00 | 0.00 | 0.00 | 65 | 1015.9 |
| 20260504023024 | 7 | 312 | 0.0 | 0.0 | 0.00 | 0.00 | 0.00 | 63 | 1016.0 |
| 20260504021524 | 7 | 312 | 0.0 | 0.0 | 0.00 | 0.00 | 0.00 | 63 | 1016.0 |
| 20260504020012 | 8 | 312 | 0.0 | 0.0 | 0.00 | 0.00 | 0.00 | 62 | 1015.9 |
| 20260504014519 | 8 | 312 | 0.0 | 0.0 | 0.00 | 0.00 | 0.00 | 60 | 1015.9 |
| 20260504013005 | 9 | 312 | 0.0 | 0.0 | 0.00 | 0.00 | 0.00 | 57 | 1015.9 |
| 20260504011509 | 10 | 312 | 0.0 | 0.0 | 0.00 | 0.00 | 0.00 | 55 | 1015.7 |
| 20260504010009 | 10 | 312 | 0.0 | 0.0 | 0.00 | 0.00 | 0.00 | 52 | 1015.6 |
| 20260504004517 | 11 | 312 | 0.0 | 0.0 | 0.00 | 0.00 | 0.00 | 49 | 1015.6 |
| 20260504003004 | 12 | 312 | 0.0 | 0.0 | 0.00 | 0.00 | 0.00 | 44 | 1015.4 |
| 20260504001504 | 13 | 312 | 0.0 | 0.0 | 0.00 | 0.00 | 0.00 | 41 | 1015.2 |
| 20260504000008 | 14 | 312 | 0.0 | 0.0 | 0.00 | 0.00 | 0.00 | 38 | 1015.0 |
| 20260503234511 | 15 | 312 | 0.0 | 0.0 | 0.00 | 0.00 | 0.00 | 35 | 1014.9 |
| 20260503233016 | 16 | 312 | 0.0 | 6.4 | 0.00 | 0.00 | 0.00 | 33 | 1014.6 |
| 20260503231504 | 16 | 321 | 0.0 | 8.0 | 0.00 | 0.00 | 0.00 | 31 | 1014.6 |
| 20260503230006 | 16 | 303 | 8.0 | 16.1 | 0.00 | 0.00 | 0.00 | 30 | 1014.6 |
| 20260503224508 | 16 | 295 | 0.0 | 14.5 | 0.00 | 0.00 | 0.00 | 31 | 1014.7 |
| 20260503223022 | 16 | 348 | 6.4 | 17.7 | 0.00 | 0.00 | 0.00 | 30 | 1014.7 |
| 20260503221518 | 16 | 258 | 4.8 | 16.1 | 0.00 | 0.00 | 0.00 | 31 | 1014.7 |
| 20260503220029 | 16 | 338 | 11.3 | 19.3 | 0.00 | 0.00 | 0.00 | 30 | 1014.7 |
| 20260503214507 | 16 | 281 | 3.2 | 16.1 | 0.00 | 0.00 | 0.00 | 31 | 1014.8 |
| 20260503213009 | 16 | 277 | 6.4 | 17.7 | 0.00 | 0.00 | 0.00 | 31 | 1014.7 |
| 20260503211521 | 16 | 215 | 6.4 | 17.7 | 0.00 | 0.00 | 0.00 | 30 | 1014.7 |
| 20260503210020 | 16 | 325 | 8.0 | 19.3 | 0.00 | 0.00 | 0.00 | 32 | 1014.7 |
| 20260503204526 | 16 | 303 | 8.0 | 22.5 | 0.00 | 0.00 | 0.00 | 32 | 1014.9 |
| 20260503203020 | 16 | 306 | 3.2 | 17.7 | 0.00 | 0.00 | 0.00 | 34 | 1014.9 |
| 20260503201514 | 15 | 301 | 4.8 | 17.7 | 0.00 | 0.00 | 0.00 | 34 | 1015.1 |
| 20260503200020 | 15 | 273 | 3.2 | 20.9 | 0.00 | 0.00 | 0.00 | 34 | 1015.4 |
| 20260503194524 | 15 | 311 | 11.3 | 22.5 | 0.00 | 0.00 | 0.00 | 34 | 1015.5 |
| 20260503193024 | 15 | 239 | 12.9 | 24.1 | 0.00 | 0.00 | 0.00 | 34 | 1015.8 |
| 20260503191513 | 15 | 288 | 9.7 | 19.3 | 0.00 | 0.00 | 0.00 | 35 | 1016.0 |
| 20260503190018 | 14 | 263 | 8.0 | 25.7 | 0.00 | 0.00 | 0.00 | 36 | 1016.1 |
| 20260503184530 | 14 | 271 | 9.7 | 22.5 | 0.00 | 0.00 | 0.00 | 36 | 1016.4 |
| 20260503183026 | 14 | 212 | 4.8 | 27.4 | 0.00 | 0.00 | 0.00 | 38 | 1016.4 |
| 20260503181508 | 13 | 238 | 11.3 | 30.6 | 0.00 | 0.00 | 0.00 | 37 | 1016.5 |
| 20260503180025 | 13 | 264 | 9.7 | 20.9 | 0.00 | 0.00 | 0.00 | 36 | 1016.6 |
| 20260503174538 | 13 | 360 | 12.9 | 25.7 | 0.00 | 0.00 | 0.00 | 37 | 1016.7 |
| 20260503173023 | 13 | 325 | 6.4 | 25.7 | 0.00 | 0.00 | 0.00 | 40 | 1016.5 |
| 20260503171530 | 13 | 283 | 8.0 | 22.5 | 0.00 | 0.00 | 0.00 | 38 | 1016.7 |